Kuiper-00250

operational
NORAD ID: 67155 Int'l Des: 2025-301 Owner: KUIP Country: US Constellation: kuiper
LEOCIRCULAR

关于 Kuiper-00250

正在加载描述...

实时位置

正在加载3D地球...

即将过境

高度历史

Altitude vs Time

uPlot chart will show altitude changes over time

两行轨道根数

1 67155U 25301Y 26034.27336038 .00036546 00000-0 98612-3 0 9995
2 67155 51.8714 231.5790 0008479 265.0240 94.9779 15.37401212 8476
Epoch: Feb 3, 2026 • Age: 15 hours

当前状态

高度 458.5 km
速度 7.64 km/s
星下点 -29.04°S, 23.01°W
发射日期 Dec 16, 2025
运行时间 0.1 years
类型 internet

技术详情

分类 Payload
质量 490.00 kg
干质量 490.00 kg
总质量 490.00 kg
长度 1.80 m
直径 0.70 m
跨度 5.00 m
形状 Box + 2 pan
制造商 KUIP
平台类型 Kuiper
阶段状态 In Orbit
所有者/国家 KUIP/US

大型星座

Loading constellations...